Location: Piolenc
(44.1794°N, 4.7641°E)
Time: 00:54:05
(UTC+00:00)

TIMED - Pass Details

Date: 27 January 2021
Orbit: 602 x 604 km, 74.1° (Epoch: 27 February)

Event Time Altitude Azimuth Distance (km) Brightness Sun altitude
Rises 06:04:15 0° 200° (SSW) 2,841 7.9 -10.9°
Reaches altitude 10° 06:06:29 10° 201° (SSW) 1,943 7.1 -10.5°
Maximum altitude 06:10:49 86° 287° (WNW) 612 4.5 -9.7°
Drops below altitude 10° 06:15:13 10° 20° (NNE) 1,959 7.2 -9.0°
Sets 06:17:27 0° 21° (NNE) 2,867 8.0 -8.6°
